Regional Weather Roundup
Issued by NWS

Home | Current Version | Previous Version | Graphics & Text | Print | Product List | Glossary On
Versions: 1 2 3 4 5 6 7 8 9 10 11 12 13 14 15 16 17 18 19 20 21 22 23 24 25 26 27 28 29 30 31 32 33 34 35 36 37 38 39 40 41 42 43 44 45 46 47 48 49 50
554
ASUS45 KTFX 202010
RWRMT
MONTANA REGIONAL WEATHER ROUNDUP
NATIONAL WEATHER SERVICE GREAT FALLS MT
100 PM MST SAT JAN 20 2018

NOTE: "FAIR" INDICATES FEW OR NO CLOUDS BELOW 12000 FEET WITH NO
SIGNIFICANT WEATHER AND/OR OBSTRUCTIONS TO VISIBILITY.

MTZ001>007-043-202100-
WEST OF THE DIVIDE

CITY           SKY/WX    TMP DP  RH WIND       PRES   REMARKS
KALISPELL      CLOUDY    35  29  78 SE13      29.96S WCI  26
MISSOULA       CLOUDY    33  26  75 CALM      30.00F
BUTTE          CLOUDY    21  15  78 CALM      29.93F
MULLAN PASS    LGT SNOW  25  23  92 W6        29.89S VSB 3/4 WCI  18
ANACONDA         N/A     30  14  51 SW12      29.94F WCI  21
DEER LODGE       N/A     30  19  64 CALM      29.96F
EUREKA           N/A     37  27  65 MISG      29.94S
HAMILTON         N/A     36  21  55 S8        29.99F WCI  29
PLAINS           N/A     40  25  55 S6        29.99F
RONAN            N/A     36  28  75 S5        29.99F
$$

MTZ008-052>055-202100-
SOUTHWEST MONTANA

CITY           SKY/WX    TMP DP  RH WIND       PRES   REMARKS
BOZEMAN        CLOUDY    25  19  78 S3        29.96F
DILLON         FAIR      23  13  65 SE7       29.94F WCI  15
ENNIS          MOSUNNY   23  16  74 E5        29.98F
THREE FORKS      N/A     32  22  67 CALM      29.95F
TWIN BRIDGES     N/A     26  13  58 CALM      29.96F
$$

MTZ009-010-012-014-046-048-049-054-202100-
EAST SLOPES AND CENTRAL MONTANA

CITY           SKY/WX    TMP DP  RH WIND       PRES   REMARKS
CUT BANK       FAIR      38  20  48 W28G37    29.79F WCI  26
GREAT FALLS    FAIR      39  18  42 SW16      29.84F WCI  30
MALMSTROM AFB  FAIR      38  21  50 SW18G24   29.86F WCI  28
HELENA         PTSUNNY   35  21  56 CALM      29.93S
AUGUSTA        FAIR      35  21  57 W17       29.82F WCI  24
BOWMANS CRNR   FAIR      34  22  61 SW15      29.83F WCI  24
CHOTEAU          N/A     39  19  45 W9G17     29.83F
FAIRFIELD      FAIR      38  19  44 SW15      29.82F WCI  30
POWER          FAIR      34  21  58 W13       29.83F WCI  25
RAYNESFORD     FAIR      37  15  41 SW22      29.85F WCI  26
ULM            FAIR      37  21  50 SW18      29.86F WCI  27
WHITE SULPHUR    N/A     28  18  64 SW10      29.88F WCI  19
$$

MTZ011-013-016-021-045-047-050-051-202100-
NORTH CENTRAL MONTANA

CITY           SKY/WX    TMP DP  RH WIND       PRES   REMARKS
HAVRE          FAIR      31  25  78 SW16      29.84S WCI  20
LEWISTOWN      FAIR      32  19  58 SW14      29.86F WCI  22
N BAR RANCH    FAIR      34  12  40 N9        29.87F WCI  26
CHINOOK          N/A     36  25  64 N6        29.84F WCI  31
DENTON         FAIR      35  23  60 MISG      29.83F
GEYSER         FAIR      36  18  47 W14       29.85S WCI  27
GRASS RANGE    FAIR      35  16  45 W14       29.84F WCI  26
STANFORD       FAIR      36  15  41 W9G16     29.85S WCI  29
WINIFRED       FAIR      35  23  61 W12       29.85F WCI  26
$$

MTZ017>020-022>027-061-062-202100-
NORTHEAST MONTANA

CITY           SKY/WX    TMP DP  RH WIND       PRES   REMARKS
GLASGOW        FAIR      29  19  66 W6        29.87S WCI  23
GLENDIVE       FAIR      36  25  64 W12       29.88F WCI  28
JORDAN           N/A     33  23  66 W7        29.88F WCI  27
MALTA          SUNNY     23  18  80 W5        29.86S
SIDNEY         FAIR      36  23  59 W25       29.83F WCI  24
WOLF POINT     FAIR      29  19  66 W5        29.88F
PLENTYWOOD       N/A     32  19  59 W9        29.81S WCI  24
POPLAR           N/A     27  18  69 W8        29.87F WCI  18
SCOBEY           N/A     31  18  58 SW9       29.81F WCI  23
$$

MTZ028>42-056>058-202100-
SOUTHCENTRAL AND SOUTHEAST MONTANA

CITY           SKY/WX    TMP DP  RH WIND       PRES   REMARKS
BAKER          FAIR      35  25  66 W12       29.89S WCI  27
BILLINGS       PTSUNNY   34  19  54 NW12      29.91F WCI  25
LIVINGSTON     FAIR      30  18  60 W15       29.91F WCI  19
MILES CITY     FAIR      32  23  69 NW6       29.90F WCI  26
BIG TIMBER     SUNNY     30  18  59 W25G35    29.89F WCI  16
EKALAKA          N/A     32  20  61 W8        29.87F WCI  25
FORSYTH          N/A     34  21  60 CALM      29.91F
HARLOWTON      FAIR      31  19  61 NW20      29.88F WCI  18
LAUREL           N/A     36  18  48 W14       29.92F WCI  27
ROUNDUP          N/A     33  16  50 SW13      29.82F WCI  24
$$

REGIONAL REPORTS...DAKOTAS

CITY           SKY/WX    TMP DP  RH WIND       PRES   REMARKS
WILLISTON      FAIR      31  21  66 W7        29.84F WCI  24
MINOT          FAIR      37  24  59 W13       29.78F WCI  29
DICKINSON      FAIR      37  25  61 W14       29.83F WCI  28
BEACH          FAIR      34  25  69 W12       29.89F WCI  25
CROSBY         FAIR      32  23  69 SW12G17   29.80S WCI  23
TIOGA          FAIR      30  25  80 W13       29.81F WCI  20
WATFORD CITY   FAIR      36  23  60 W10       29.84S WCI  28
BISMARCK       FAIR      41  27  57 W14       29.86F
GRAND FORKS    FAIR      36  29  75 W9        29.80F WCI  29
FARGO          FAIR      38  31  76 W7        29.83S
BUFFALO SD       N/A     38  26  62 NW12      29.82F WCI  30
RAPID CITY     CLOUDY    39  26  59 N9        29.88F
$$

REGIONAL REPORTS...WYOMING/IDAHO/WASHINGTON

CITY           SKY/WX    TMP DP  RH WIND       PRES   REMARKS
GILLETTE       CLOUDY    31  24  75 N8        29.88F WCI  23
SHERIDAN       FAIR      32  22  66 NW8       29.90F WCI  25
BUFFALO WY     CLOUDY    31  17  56 N10       29.88F WCI  22
CODY           PTSUNNY   32  23  69 W3        29.88F
YELLOWSTONE LA   N/A     20  10  65 NW3       29.85F
IDAHO FALLS    FAIR      33  16  49 N14       29.94F WCI  23
SALMON         CLOUDY    29  21  72 N5        30.03F
BOISE          FAIR      39  28  64 NW12      30.06F WCI  32
SPOKANE        FLURRIES  35  32  88 S12       29.99F WCI  27
$$

REGIONAL REPORTS...ALBERTA

CITY           SKY/WX    TMP DP  RH WIND       PRES   REMARKS
CALGARY        MOSUNNY   41  14  33 W15G22    29.70F
CARDSTON         N/A     37  19  48 W18G28      N/A  WCI  27
EDMONTON       PTSUNNY   23  21  93 CALM      29.75S
FORT MCMURRAY  FLURRIES  18  16  93 NE2       29.79R
HIGH LEVEL     FLURRIES  18  16  93 N9        29.83S WCI   6
LLOYDMINSTER   CLOUDY    27  23  86 W9        29.75R WCI  17
MEDICINE HAT   MOSUNNY   34  25  69 SW12      29.78F WCI  25
MILK RIVER       N/A     36  25  64 W12         N/A  WCI  27
ONEFOUR          N/A     25  16  68 E3          N/A
PEACE RIVER    FLURRIES  18  14  86 CALM      29.78R
PINCHER CREEK  PTSUNNY   34  23  64 W30G36    29.78F WCI  20
WATERTON GATE    N/A     34  21  60 SW18G31     N/A  WCI  23
$$

REGIONAL REPORTS...SASKATCHEWAN

CITY           SKY/WX    TMP DP  RH WIND       PRES   REMARKS
CORONACH         N/A     32  21  64 W16         N/A  WCI  21
CYPRESS HILLS    N/A     34  12  40 NW6         N/A  WCI  29
ESTEVAN        MOSUNNY   32  23  69 W12G17    29.78F WCI  23
MOOSE JAW        N/A     37  21  52 W12         N/A  WCI  30
PRINCE ALBERT  CLOUDY    19  14  79 E2        29.79R
REGINA         MOSUNNY   32  25  74 W12G17    29.77R WCI  23
ROCKGLEN         N/A     27  19  74 W15         N/A  WCI  15
SASKATOON      CLOUDY    30  25  80 W8        29.78R WCI  23
SWIFT CURRENT  SUNNY     34  21  60 W15       29.75S WCI  24
VAL MARIE        N/A     27  19  74 SW10        N/A  WCI  17
$$




USA.gov is the U.S. government's official web portal to all federal, state and local government web resources and services.